This is the latest recevied weather packets stored in our database for station/object KD2RHT-13. If no packets are shown the sender has not sent any weather packets the latest 10 day(s).
| Time | Temp. | Humidity | Pressure | Rain* | Wind** | Luminosity | Snow |
|---|---|---|---|---|---|---|---|
| 1778037475 | 8.89° C | 99% | 1012.1 hPa | 3.05 mm | - | 0 W/m² | - |
| 1778037173 | 8.89° C | 99% | 1012.1 hPa | 3.05 mm | - | 0 W/m² | - |
| 1778036871 | 8.89° C | 99% | 1012.1 hPa | 3.05 mm | - | 0 W/m² | - |
| 1778036568 | 8.89° C | 99% | 1012.1 hPa | 3.56 mm | - | 0 W/m² | - |
| 1778036265 | 8.89° C | 99% | 1012.4 hPa | 1.78 mm | - | 0 W/m² | - |
| 1778035961 | 8.89° C | 99% | 1012.4 hPa | 0 mm | - | 0 W/m² | - |
| 1778035658 | 9.44° C | 99% | 1012.7 hPa | 0 mm | - | 0 W/m² | - |
| 1778035355 | 8.89° C | 99% | 1012.4 hPa | 0 mm | - | 0 W/m² | - |
| 1778035051 | 8.89° C | 99% | 1012.7 hPa | 0 mm | - | 0 W/m² | - |
| 1778034749 | 8.89° C | 99% | 1012.1 hPa | 1.27 mm | - | 0 W/m² | - |
| 1778034445 | 8.89° C | 99% | 1012.4 hPa | 1.78 mm | - | 0 W/m² | - |
| 1778034143 | 8.89° C | 99% | 1012.4 hPa | 3.05 mm | - | 0 W/m² | - |
| 1778033841 | 8.89° C | 99% | 1012.4 hPa | 4.32 mm | - | 0 W/m² | - |
| 1778033538 | 9.44° C | 99% | 1012.1 hPa | 1.27 mm | - | 0 W/m² | - |
| 1778033234 | 9.44° C | 99% | 1012.4 hPa | 1.78 mm | - | 0 W/m² | - |
| 1778032933 | 9.44° C | 99% | 1012.1 hPa | 1.78 mm | - | 0 W/m² | - |
| 1778032630 | 9.44° C | 99% | 1012.1 hPa | 1.27 mm | - | 0 W/m² | - |
| 1778032327 | 9.44° C | 99% | 1012.1 hPa | 1.78 mm | - | 0 W/m² | - |
| 1778032024 | 9.44° C | 99% | 1012.1 hPa | 1.27 mm | - | 0 W/m² | - |
| 1778031720 | 9.44° C | 99% | 1011.7 hPa | 1.78 mm | - | 0 W/m² | - |
| 1778031418 | 9.44° C | 99% | 1012.1 hPa | 4.83 mm | - | 0 W/m² | - |
| 1778031115 | 9.44° C | 99% | 1012.4 hPa | 4.32 mm | - | 0 W/m² | - |
| 1778030811 | 9.44° C | 99% | 1012.1 hPa | 4.83 mm | - | 0 W/m² | - |
| 1778030507 | 9.44° C | 99% | 1012.1 hPa | 3.05 mm | - | 0 W/m² | - |
| 1778030199 | 9.44° C | 99% | 1012.1 hPa | 1.27 mm | - | 0 W/m² | - |
* Rain latest hour (hover to see other rain measurements)
** Current wind speed in m/s (hover to see current wind gust speed)